#timestamp,LO_Frequency,Hit,StdDev 
1606568415.7,286046997.4,N
1606568435.5,286046998.6,N
1606568455.3,286047000.0,N
1606568475.2,286046997.7,N
1606568495.9,286046995.4,N
1606568515.7,286046998.0,N
1606568535.6,286046997.0,N
1606568555.4,286046995.0,N
1606568575.3,286046999.5,N
1606568595.1,286047001.0,N
1606568596.0,286047001.0,N
1606568615.8,286047000.3,N
1606568635.7,286047000.5,N
1606568655.5,286047000.0,N
1606568675.3,286047001.1,N
1606568695.2,286047000.0,N
1606568715.0,286047000.7,N
1606568715.9,286047000.7,N
1606568735.8,286046999.3,N
1606568755.6,286046999.1,N
1606568775.4,286046997.1,N
1606568795.3,286046997.1,N
1606568815.1,286046998.8,N
1606568835.8,286046996.6,N
1606568855.7,286046999.2,N
1606568875.5,286046998.1,N
1606568895.4,286046998.2,N
1606568915.2,286047000.9,N
1606568935.0,286047000.9,N
1606568935.9,286047000.9,N
1606568955.8,286046999.9,N
1606568975.6,286046999.6,N
1606568995.4,286046997.3,N
1606569015.3,286046998.7,N
1606569035.1,286046999.0,N
1606569055.9,286046999.2,N
1606569075.7,286047000.7,N
1606569095.5,286046998.3,N
1606569115.4,286046999.6,N
1606569135.2,286046999.7,N
1606569155.0,286047002.4,N
1606569156.0,286047002.4,N
1606569175.8,286046999.7,N
1606569195.6,286046999.3,N
1606569215.5,286046998.8,N
1606569235.3,286046998.7,N
1606569255.1,286047001.2,N
1606569275.9,286046999.1,N
1606569295.7,286046995.8,Y
1606569315.6,286046996.3,P
1606569335.4,286046999.6,N
1606569355.2,286047000.3,N
1606569375.1,286047000.9,N
1606569376.0,286047000.9,N
1606569395.8,286047002.1,N
1606569415.7,286047000.3,N
1606569435.5,286047006.0,Y
1606569455.3,286047003.7,P
1606569475.2,286047004.1,N
1606569495.0,286047006.0,P
1606569495.9,286047006.0,N
1606569515.7,286047006.6,N
1606569535.6,286047007.6,Y
1606569555.4,286047002.2,P
1606569575.3,286047001.6,N
1606569595.1,286047000.3,N
1606569596.0,286047000.3,N
1606569615.8,286047000.7,N
1606569635.7,286046998.3,N
1606569655.5,286046999.1,N
1606569675.4,286046995.0,N
1606569695.2,286046991.8,Y
1606569715.0,286046992.0,P
1606569715.9,286046992.0,N
1606569735.8,286046991.9,N
1606569755.6,286046994.8,N
1606569775.5,286046994.1,N
1606569795.3,286046992.3,N
1606569815.1,286046994.1,N
1606569835.9,286046992.4,N
1606569855.7,286046994.2,N
1606569875.5,286046993.3,N
1606569895.4,286046993.3,N
1606569915.2,286046992.9,Y
1606569935.1,286046999.6,P
1606569936.0,286046999.6,N
1606569955.8,286046995.7,N
1606569975.6,286046995.0,N
1606569995.5,286046997.3,N
1606570015.3,286046997.1,N
1606570035.1,286046997.7,N
1606570055.9,286046997.7,N
1606570075.7,286046997.3,N
1606570095.6,286046995.7,N
1606570115.4,286046993.7,Y
1606570135.2,286047000.0,P
1606570155.1,286047001.7,N
1606570156.0,286047001.7,N
1606570175.8,286047002.8,N
1606570195.7,286047001.6,N
1606570215.5,286047004.4,N
1606570235.3,286047002.5,N
1606570255.2,286047001.1,N
1606570275.9,286046998.8,N
1606570295.7,286046996.6,N
1606570315.6,286047001.1,N
1606570335.4,286046998.4,N
1606570355.2,286046999.8,N
1606570375.1,286047000.7,N
1606570376.0,286047000.7,N
1606570395.8,286047001.3,N
1606570415.7,286047001.6,N
1606570435.5,286047000.0,N
1606570455.3,286047000.2,N
1606570475.2,286047002.8,N
1606570495.0,286046999.2,N
1606570495.9,286046999.2,N
1606570515.7,286046996.8,N
1606570535.6,286047000.0,N
1606570555.4,286047000.0,N
1606570575.3,286046997.2,N
1606570595.1,286046997.4,N
1606570596.0,286046997.4,N
1606570615.8,286046998.9,N
1606570635.7,286047000.1,N
1606570655.5,286047000.2,N
1606570675.3,286047001.0,N
1606570695.2,286046998.7,N
1606570715.0,286046999.4,N
1606570715.9,286046999.4,N
1606570735.8,286047000.9,N
1606570755.6,286046998.8,N
1606570775.4,286047000.5,N
1606570795.3,286046999.0,N
1606570815.1,286046999.2,N
1606570835.9,286046999.2,N
1606570855.7,286046995.4,Y
1606570875.5,286046997.2,P
1606570895.4,286046997.4,N
1606570915.2,286046997.6,N
1606570935.0,286046995.7,Y
1606570935.9,286046995.7,P
1606570955.8,286046997.0,N
1606570975.6,286046995.2,P
1606570995.5,286046995.1,Y
1606571015.3,286047000.7,P
1606571035.1,286047000.9,N
1606571055.9,286047002.6,N
1606571075.7,286047003.8,N
1606571095.6,286047004.2,N
1606571115.4,286047001.8,N
1606571135.2,286047002.5,N
1606571155.1,286047000.0,N
1606571156.0,286047000.0,N
1606571175.8,286047000.8,N
1606571195.6,286047000.6,N
1606571215.5,286046999.9,N
1606571235.3,286047002.4,N
1606571255.2,286047002.3,N
1606571275.9,286046999.8,N
1606571295.7,286047000.8,N
1606571315.6,286046999.7,N
1606571335.4,286047001.1,N
1606571355.2,286046998.2,N
1606571375.1,286046999.1,N
1606571376.0,286046999.1,N
1606571395.8,286046997.0,N
1606571415.7,286046999.0,N
1606571435.5,286046997.2,N
1606571455.3,286046997.3,N
1606571475.2,286046997.4,N
1606571495.0,286046997.2,N
1606571495.9,286046997.2,N
1606571515.7,286046999.1,N
1606571535.6,286047001.0,N
1606571555.4,286046999.2,N
1606571575.3,286046998.8,N
1606571625.1,286046999.2,E
1606571635.1,286046998.4,N
1606571636.0,286046998.4,P
1606571655.8,286046998.6,P
1606571675.6,286047000.5,Y
1606571695.5,286047011.9,P
1606571715.3,286047000.9,N
1606571735.1,286046999.9,N
1606571755.9,286047000.7,N
1606571775.7,286046998.9,N
1606571795.6,286046998.8,N
1606571815.4,286047000.3,N
1606571835.2,286047001.2,N
1606571855.1,286046998.8,N
1606571856.0,286046998.8,N
1606571875.8,286046998.6,N
1606571895.6,286046998.7,N
1606571915.5,286046998.2,N
1606571935.3,286046999.9,N
1606571955.2,286047001.2,N
1606571975.9,286046998.4,N
1606571995.7,286046997.4,N
